CW4869 Weather Reports


Display with metric or nautical units.
time (UTC)temp
F
wind
direction
speed
MPH
gust
MPH
rain 1hr
in
rain 24hr
in
rain mn
in
humidity
%
barometer
mb
20260510154535 54 262 13.0 18.0 0.00 0.00 0.00 59 1015.3
20260510154027 54 255 14.0 17.0 0.00 0.00 0.00 58 1015.3
20260510153535 53 260 13.0 15.0 0.00 0.00 0.00 57 1015.3
20260510153023 53 248 13.0 17.0 0.00 0.00 0.00 60 1015.3
20260510152528 53 256 13.0 17.0 0.00 0.00 0.00 59 1015.2
20260510152041 54 258 13.0 19.0 0.00 0.00 0.00 60 1015.2
20260510151554 54 254 14.0 19.0 0.00 0.00 0.00 60 1015.2
20260510151039 53 261 12.0 18.0 0.00 0.00 0.00 58 1015.1
20260510150554 53 279 13.0 18.0 0.00 0.00 0.00 57 1015.1
20260510150041 53 257 13.0 18.0 0.00 0.00 0.00 55 1015.0
20260510145553 53 265 14.0 18.0 0.00 0.00 0.00 57 1015.0
20260510145038 52 258 11.0 18.0 0.00 0.00 0.00 56 1014.9
20260510144527 52 252 11.0 15.0 0.00 0.00 0.00 57 1014.9
20260510144039 52 254 10.0 15.0 0.00 0.00 0.00 59 1014.7
20260510143530 52 281 10.0 14.0 0.00 0.00 0.00 57 1014.7
20260510143040 51 271 6.0 14.0 0.00 0.00 0.00 57 1014.7
20260510142524 51 296 5.0 14.0 0.00 0.00 0.00 59 1014.7
20260510142054 51 259 6.0 13.0 0.00 0.00 0.00 57 1014.7
20260510141539 51 253 7.0 13.0 0.00 0.00 0.00 60 1014.6
20260510141029 51 318 6.0 12.0 0.00 0.00 0.00 61 1014.6
20260510140531 51 292 5.0 11.0 0.00 0.00 0.00 62 1014.7
20260510140035 50 328 5.0 15.0 0.00 0.00 0.00 61 1014.6
20260510135521 50 240 9.0 16.0 0.00 0.00 0.00 62 1014.6
20260510135025 50 271 10.0 16.0 0.00 0.00 0.00 62 1014.6
20260510134535 50 300 7.0 17.0 0.00 0.00 0.00 61 1014.6
20260510134045 50 255 9.0 17.0 0.00 0.00 0.00 62 1014.6
20260510133530 50 253 7.0 14.0 0.00 0.00 0.00 63 1014.5
20260510133040 50 306 5.0 16.0 0.00 0.00 0.00 61 1014.6
20260510132528 49 302 7.0 16.0 0.00 0.00 0.00 61 1014.5
20260510132039 49 286 6.0 15.0 0.00 0.00 0.00 61 1014.5
20260510131523 50 265 6.0 13.0 0.00 0.00 0.00 61 1014.5
20260510131051 49 256 5.0 10.0 0.00 0.00 0.00 61 1014.4
20260510130556 49 321 3.0 11.0 0.00 0.00 0.00 63 1014.4
20260510130026 48 327 4.0 11.0 0.00 0.00 0.00 64 1014.5
20260510125558 48 344 5.0 11.0 0.00 0.00 0.00 63 1014.4
20260510125029 48 325 5.0 11.0 0.00 0.00 0.00 64 1014.4
20260510124533 48 314 5.0 10.0 0.00 0.00 0.00 66 1014.2
20260510124050 48 6 3.0 11.0 0.00 0.00 0.00 65 1014.3
20260510123537 47 263 6.0 11.0 0.00 0.00 0.00 66 1014.1
20260510123025 47 344 6.0 12.0 0.00 0.00 0.00 67 1014.0
20260510122534 47 322 6.0 12.0 0.00 0.00 0.00 65 1014.0
20260510122037 47 1 5.0 10.0 0.00 0.00 0.00 64 1013.9
20260510121547 47 299 5.0 9.0 0.00 0.00 0.00 64 1013.9
20260510121038 47 281 4.0 8.0 0.00 0.00 0.00 65 1013.8
20260510120526 46 276 5.0 10.0 0.00 0.00 0.00 67 1013.8
20260510120039 46 334 6.0 10.0 0.00 0.00 0.00 67 1013.8
20260510115522 46 310 3.0 10.0 0.00 0.00 0.00 67 1013.6
20260510115038 46 259 4.0 9.0 0.00 0.00 0.00 67 1013.5
20260510114544 46 278 5.0 10.0 0.00 0.00 0.00 66 1013.5
20260510114032 46 297 5.0 10.0 0.00 0.00 0.00 65 1013.5
20260510113540 46 253 5.0 10.0 0.00 0.00 0.00 65 1013.4
20260510113041 46 290 6.0 10.0 0.00 0.00 0.00 63 1013.3
20260510112526 45 269 4.0 9.0 0.00 0.00 0.00 66 1013.2
20260510112041 45 333 4.0 7.0 0.00 0.00 0.00 66 1013.1
20260510111529 45 331 4.0 7.0 0.00 0.00 0.00 67 1013.0
20260510111041 45 295 3.0 7.0 0.00 0.00 0.00 66 1012.8
20260510110522 45 269 2.0 9.0 0.00 0.00 0.00 67 1012.7
20260510110026 45 302 3.0 7.0 0.00 0.00 0.00 66 1012.7
20260510105523 45 314 3.0 7.0 0.00 0.00 0.00 66 1012.7
20260510105033 45 326 3.0 8.0 0.00 0.00 0.00 66 1012.6
20260510104540 45 308 4.0 8.0 0.00 0.00 0.00 67 1012.4
20260510104035 45 257 3.0 7.0 0.00 0.00 0.00 67 1012.3
20260510103521 45 317 3.0 8.0 0.00 0.00 0.00 67 1012.3
20260510103032 45 320 3.0 8.0 0.00 0.00 0.00 66 1012.3
20260510102537 45 296 3.0 8.0 0.00 0.00 0.00 67 1012.2
20260510102028 45 293 3.0 9.0 0.00 0.00 0.00 67 1012.2
20260510101532 45 301 4.0 9.0 0.00 0.00 0.00 67 1012.1
20260510101028 45 303 3.0 8.0 0.00 0.00 0.00 67 1012.1
20260510100040 45 306 4.0 8.0 0.00 0.00 0.00 67 1012.1
20260510095528 45 331 3.0 8.0 0.00 0.00 0.00 67 1012.0
20260510095042 45 303 3.0 7.0 0.00 0.00 0.00 66 1012.0
20260510094531 45 293 3.0 7.0 0.00 0.00 0.00 66 1012.0
20260510094037 45 315 3.0 7.0 0.00 0.00 0.00 66 1011.8
20260510093526 45 314 3.0 8.0 0.00 0.00 0.00 65 1011.7
20260510093036 45 328 4.0 8.0 0.00 0.00 0.00 66 1011.7
20260510092539 45 331 3.0 7.0 0.00 0.00 0.00 67 1011.6
20260510092055 45 314 3.0 8.0 0.00 0.00 0.00 67 1011.6
20260510091521 45 303 3.0 7.0 0.00 0.00 0.00 67 1011.6
20260510091059 45 314 4.0 7.0 0.00 0.00 0.00 66 1011.5
20260510090552 45 307 4.0 8.0 0.00 0.00 0.00 65 1011.5
20260510090107 45 326 4.0 8.0 0.00 0.00 0.00 65 1011.3
20260510085540 45 304 4.0 8.0 0.00 0.00 0.00 66 1011.2
20260510085033 45 354 5.0 9.0 0.00 0.00 0.00 65 1011.2
20260510084540 45 105 3.0 9.0 0.00 0.00 0.00 65 1011.2
20260510083530 45 315 3.0 9.0 0.00 0.00 0.00 66 1011.1
20260510083041 45 316 4.0 11.0 0.00 0.00 0.00 65 1011.0
20260510082530 45 314 5.0 12.0 0.00 0.00 0.00 64 1010.9
20260510082035 45 337 4.0 12.0 0.00 0.00 0.00 66 1010.9
20260510081524 45 348 6.0 12.0 0.00 0.00 0.00 63 1010.8
20260510081037 46 254 6.0 13.0 0.00 0.00 0.00 64 1010.8
20260510080531 46 40 5.0 13.0 0.00 0.00 0.00 65 1010.7
20260510080043 46 333 5.0 10.0 0.00 0.00 0.00 67 1010.7
20260510075528 46 323 5.0 12.0 0.00 0.00 0.00 67 1010.6
20260510075103 46 20 7.0 12.0 0.00 0.00 0.00 67 1010.5
20260510074527 46 356 6.0 13.0 0.00 0.00 0.00 67 1010.5
20260510074039 46 348 6.0 13.0 0.00 0.00 0.00 67 1010.4
20260510073527 46 303 6.0 13.0 0.00 0.00 0.00 67 1010.2
20260510073033 46 324 4.0 13.0 0.00 0.00 0.00 67 1010.2
20260510072539 46 346 7.0 15.0 0.00 0.00 0.00 67 1010.2
20260510072103 46 330 6.0 15.0 0.00 0.00 0.00 65 1010.0
20260510071033 47 316 5.0 17.0 0.00 0.00 0.00 65 1009.9
20260510070540 47 314 6.0 17.0 0.00 0.00 0.00 65 1009.9
20260510070026 47 331 7.0 13.0 0.00 0.00 0.00 65 1009.8
20260510065558 47 332 5.0 13.0 0.00 0.00 0.00 64 1009.7
20260510065027 47 279 6.0 12.0 0.00 0.00 0.00 65 1009.7
20260510064533 47 321 6.0 11.0 0.00 0.00 0.00 65 1009.7
20260510064026 47 347 5.0 13.0 0.00 0.00 0.00 65 1009.7
20260510063535 47 345 3.0 13.0 0.00 0.00 0.00 64 1009.6
20260510063049 48 283 5.0 16.0 0.00 0.00 0.00 66 1009.7
20260510062532 48 334 4.0 16.0 0.00 0.00 0.00 65 1009.6
20260510062024 48 312 4.0 14.0 0.00 0.00 0.00 64 1009.6
20260510061533 48 20 5.0 14.0 0.00 0.00 0.00 63 1009.5
20260510061055 48 46 5.0 9.0 0.00 0.00 0.00 65 1009.5
20260510060531 48 320 4.0 11.0 0.00 0.00 0.00 65 1009.5
20260510060047 48 329 4.0 11.0 0.00 0.00 0.00 64 1009.4
20260510055530 48 323 6.0 13.0 0.00 0.00 0.00 63 1009.3
20260510055055 48 1 5.0 13.0 0.00 0.00 0.00 63 1009.3
20260510054523 48 1 7.0 12.0 0.00 0.00 0.00 63 1009.2
20260510054036 49 344 3.0 12.0 0.00 0.00 0.00 63 1009.2
20260510053540 49 4 4.0 8.0 0.00 0.00 0.00 62 1009.1
20260510053041 49 314 4.0 10.0 0.00 0.00 0.00 62 1008.9
20260510052529 49 35 3.0 15.0 0.00 0.00 0.00 60 1009.0
20260510052039 49 179 4.0 15.0 0.00 0.00 0.00 60 1008.9
20260510051528 49 4 5.0 14.0 0.00 0.00 0.00 61 1008.8
20260510051039 49 269 3.0 11.0 0.00 0.00 0.00 61 1008.7
20260510050524 49 339 4.0 11.0 0.00 0.00 0.00 60 1008.7
20260510050026 49 343 3.0 12.0 0.00 0.00 0.00 61 1008.6
20260510045600 50 346 3.0 12.0 0.00 0.00 0.00 60 1008.5
20260510045033 50 320 2.0 8.0 0.00 0.00 0.00 60 1008.4
20260510044537 50 298 3.0 12.0 0.00 0.00 0.00 60 1008.4
20260510044040 50 338 3.0 12.0 0.00 0.00 0.00 59 1008.4
20260510043528 50 269 3.0 11.0 0.00 0.00 0.00 60 1008.3
20260510043035 50 6 5.0 13.0 0.00 0.00 0.00 61 1008.3
20260510042522 51 6 5.0 13.0 0.00 0.00 0.00 62 1008.2
20260510042031 51 353 6.0 12.0 0.00 0.00 0.00 62 1008.0
20260510041536 51 317 5.0 11.0 0.00 0.00 0.00 62 1008.0
20260510041027 51 324 5.0 10.0 0.00 0.00 0.00 62 1007.9
20260510040600 51 321 5.0 10.0 0.00 0.00 0.00 62 1007.8
20260510040045 51 344 4.0 10.0 0.00 0.00 0.00 60 1007.8
20260510035540 51 306 4.0 12.0 0.00 0.00 0.00 60 1007.8
20260510035032 52 350 5.0 13.0 0.00 0.00 0.00 59 1007.7
20260510034540 52 21 6.0 13.0 0.00 0.00 0.00 60 1007.6
20260510034028 52 330 4.0 11.0 0.00 0.00 0.00 60 1007.6
20260510033534 52 278 4.0 9.0 0.00 0.00 0.00 59 1007.3
20260510033024 52 298 3.0 13.0 0.00 0.00 0.00 60 1007.3
20260510032532 52 291 4.0 13.0 0.00 0.00 0.00 59 1007.2
20260510032040 53 335 3.0 16.0 0.00 0.00 0.00 59 1007.0
20260510031532 53 341 4.0 16.0 0.00 0.00 0.00 57 1007.0
20260510031027 53 355 4.0 12.0 0.00 0.00 0.00 58 1006.8
20260510030533 53 348 4.0 11.0 0.00 0.00 0.00 60 1006.8
20260510030025 54 338 4.0 12.0 0.00 0.00 0.00 60 1006.8
20260510025533 54 108 4.0 13.0 0.00 0.00 0.00 58 1006.7
20260510025024 54 355 6.0 13.0 0.00 0.00 0.00 59 1006.5
20260510024529 54 349 4.0 14.0 0.00 0.00 0.00 59 1006.4
20260510024041 54 310 3.0 11.0 0.00 0.00 0.00 60 1006.3
20260510023527 54 327 5.0 10.0 0.00 0.00 0.00 60 1006.2
20260510023046 54 330 3.0 9.0 0.00 0.00 0.00 60 1006.0
20260510022533 54 344 5.0 9.0 0.00 0.00 0.00 60 1006.0
20260510022024 54 293 3.0 9.0 0.00 0.00 0.00 60 1005.8
20260510021535 54 307 4.0 7.0 0.00 0.00 0.00 59 1005.8
20260510021023 54 314 3.0 7.0 0.00 0.00 0.00 59 1005.6
20260510020531 54 316 4.0 8.0 0.00 0.00 0.00 59 1005.5
20260510020045 54 295 4.0 8.0 0.00 0.00 0.00 59 1005.5
20260510015554 54 283 3.0 7.0 0.00 0.00 0.00 60 1005.4
20260510015059 54 346 3.0 7.0 0.00 0.00 0.00 60 1005.3
20260510014551 54 303 3.0 7.0 0.00 0.00 0.00 60 1005.2
20260510014039 55 314 3.0 8.0 0.00 0.00 0.00 60 1005.0
20260510013033 55 342 3.0 9.0 0.00 0.00 0.00 60 1004.7
20260510012540 55 301 4.0 9.0 0.00 0.00 0.00 61 1004.6
20260510012118 55 286 4.0 11.0 0.00 0.00 0.00 61 1004.5
20260510011525 55 303 4.0 8.0 0.00 0.00 0.00 61 1004.4
20260510011038 55 326 4.0 11.0 0.00 0.00 0.00 62 1004.3
20260510010524 55 324 4.0 11.0 0.00 0.00 0.00 60 1004.1
20260510010038 55 302 6.0 11.0 0.00 0.00 0.00 61 1004.0
20260510005522 55 274 4.0 10.0 0.00 0.00 0.00 62 1003.8
20260510005035 55 299 5.0 11.0 0.00 0.00 0.00 61 1003.8
20260510004026 56 328 4.0 11.0 0.00 0.00 0.00 62 1003.5
20260510003534 56 346 5.0 11.0 0.00 0.00 0.00 61 1003.5
20260510003026 56 308 5.0 11.0 0.00 0.00 0.00 62 1003.4
20260510002538 57 347 6.0 13.0 0.00 0.00 0.00 62 1003.4
20260510002025 57 338 6.0 13.0 0.00 0.00 0.00 61 1003.3
20260510001533 57 284 6.0 14.0 0.00 0.00 0.00 61 1003.1
20260510001026 57 328 8.0 15.0 0.00 0.00 0.00 61 1003.0
20260510000530 57 299 8.0 14.0 0.00 0.00 0.00 61 1003.0
20260510000041 57 338 5.0 16.0 0.00 0.00 0.00 61 1002.8
20260509235614 57 338 5.0 16.0 0.00 0.00 0.00 59 1002.7
20260509235025 58 319 8.0 16.0 0.00 0.00 0.00 58 1002.5
20260509234535 58 293 8.0 16.0 0.00 0.00 0.00 59 1002.4
20260509234030 58 319 7.0 15.0 0.00 0.00 0.00 59 1002.2
20260509233538 58 293 5.0 15.0 0.00 0.00 0.00 60 1002.1
20260509233026 58 327 7.0 21.0 0.00 0.00 0.00 60 1002.1
20260509232534 58 355 8.0 21.0 0.00 0.00 0.00 61 1002.0
20260509232046 58 342 6.0 18.0 0.00 0.00 0.00 62 1001.9
20260509231530 58 319 7.0 16.0 0.00 0.00 0.00 63 1001.7
20260509231023 58 343 7.0 15.0 0.00 0.00 0.00 65 1001.6
20260509230533 58 20 5.0 13.0 0.00 0.00 0.00 66 1001.5
20260509230026 58 307 7.0 16.0 0.00 0.00 0.00 65 1001.4
20260509225537 58 6 7.0 17.0 0.00 0.00 0.00 64 1001.2
20260509225031 59 331 6.0 17.0 0.00 0.00 0.00 64 1001.2
20260509224540 59 337 6.0 16.0 0.00 0.00 0.00 66 1001.0
20260509224027 59 312 7.0 15.0 0.00 0.00 0.00 65 1000.9
20260509223538 59 348 4.0 12.0 0.00 0.00 0.00 64 1000.8
20260509223055 60 46 5.0 17.0 0.00 0.00 0.00 64 1000.7
20260509222524 61 320 8.0 17.0 0.00 0.00 0.00 61 1000.7
20260509222036 63 306 4.0 19.0 0.00 0.00 0.00 58 1000.4
20260509221542 63 319 8.0 18.0 0.00 0.00 0.00 55 1000.3
20260509221031 62 297 9.0 16.0 0.00 0.00 0.00 58 1000.2
20260509220533 62 306 8.0 16.0 0.00 0.00 0.00 58 1000.1
20260509220025 62 272 6.0 13.0 0.00 0.00 0.00 57 1000.0
20260509215038 63 316 5.0 15.0 0.00 0.00 0.00 60 999.9
20260509214528 64 304 6.0 16.0 0.00 0.00 0.00 58 999.8
20260509214041 64 319 8.0 16.0 0.00 0.00 0.00 57 999.7
20260509213551 63 330 8.0 14.0 0.00 0.00 0.00 55 999.7
20260509213050 64 296 9.0 15.0 0.00 0.00 0.00 57 999.6
20260509212538 64 305 8.0 16.0 0.00 0.00 0.00 56 999.7
20260509212036 64 259 8.0 19.0 0.00 0.00 0.00 56 999.6
20260509211549 64 316 10.0 19.0 0.00 0.00 0.00 54 999.5
20260509211040 65 247 10.0 22.0 0.00 0.00 0.00 56 999.5
20260509210610 65 299 13.0 25.0 0.00 0.00 0.00 53 999.4
20260509210028 65 297 15.0 25.0 0.00 0.00 0.00 54 999.4
20260509205602 65 265 12.0 23.0 0.00 0.00 0.00 52 999.3
20260509205029 65 290 11.0 22.0 0.00 0.00 0.00 55 999.4
20260509204528 65 281 14.0 22.0 0.00 0.00 0.00 58 999.3
20260509204043 64 284 11.0 18.0 0.00 0.00 0.00 60 999.3
20260509203527 64 295 12.0 21.0 0.00 0.00 0.00 63 999.3
20260509203038 64 264 12.0 21.0 0.00 0.00 0.00 57 999.3
20260509202528 64 252 14.0 24.0 0.00 0.00 0.00 58 999.3
20260509202040 64 259 14.0 24.0 0.00 0.00 0.00 62 999.3
20260509201525 64 262 14.0 20.0 0.00 0.00 0.00 65 999.3
20260509201036 64 247 13.0 20.0 0.00 0.00 0.00 66 999.3
20260509200547 63 262 14.0 21.0 0.00 0.00 0.00 67 999.3
20260509200033 64 244 16.0 22.0 0.00 0.00 0.00 67 999.3
20260509195529 63 263 16.0 23.0 0.00 0.00 0.00 67 999.3
20260509195039 63 274 16.0 26.0 0.00 0.00 0.00 68 999.3
20260509194524 62 228 17.0 26.0 0.00 0.00 0.00 70 999.3
20260509194034 62 246 20.0 28.0 0.00 0.00 0.00 71 999.2
20260509193523 62 246 21.0 28.0 0.00 0.00 0.00 73 999.2
20260509193055 61 258 23.0 29.0 0.00 0.00 0.00 74 999.3
20260509192547 61 248 24.0 30.0 0.00 0.00 0.00 74 999.3
20260509192037 61 253 26.0 31.0 0.00 0.00 0.00 74 999.3
20260509191529 61 251 25.0 31.0 0.00 0.00 0.00 75 999.3
20260509191039 61 250 25.0 30.0 0.00 0.00 0.00 73 999.2
20260509190528 61 255 26.0 30.0 0.00 0.00 0.00 73 999.2
20260509190041 62 252 23.0 28.0 0.00 0.00 0.00 72 999.0
20260509185532 61 250 23.0 29.0 0.00 0.00 0.00 73 999.0
20260509185042 61 248 24.0 31.0 0.00 0.00 0.00 73 999.0
20260509184541 61 252 26.0 33.0 0.00 0.00 0.00 74 999.0
20260509184057 61 252 28.0 33.0 0.00 0.00 0.00 70 999.0
20260509183550 61 257 26.0 35.0 0.00 0.00 0.00 70 999.0
20260509183040 61 257 28.0 35.0 0.00 0.00 0.00 70 998.9
20260509182528 61 255 26.0 35.0 0.00 0.00 0.00 68 998.8
20260509182037 61 251 27.0 38.0 0.00 0.00 0.00 68 998.8
20260509181526 60 251 26.0 37.0 0.00 0.00 0.00 68 999.0
20260509181039 60 252 25.0 36.0 0.00 0.00 0.00 67 998.9
20260509180549 60 252 23.0 36.0 0.00 0.00 0.00 67 999.0
20260509180104 60 254 24.0 39.0 0.00 0.00 0.00 66 999.1
20260509175539 61 252 21.0 30.0 0.00 0.00 0.00 67 999.0
20260509175025 61 255 18.0 29.0 0.00 0.00 0.00 66 999.1
20260509174535 61 242 17.0 33.0 0.00 0.00 0.00 67 999.0
20260509174112 61 241 19.0 33.0 0.00 0.00 0.00 66 999.0
20260509173542 61 262 20.0 29.0 0.00 0.00 0.00 70 999.0
20260509173037 61 255 14.0 29.0 0.00 0.00 0.00 70 998.6
20260509172527 61 252 14.0 23.0 0.00 0.00 0.00 77 998.5
20260509172024 61 308 11.0 22.0 0.00 0.00 0.00 80 998.3
20260509171531 60 260 16.0 22.0 0.00 0.00 0.00 79 998.2
20260509171044 60 257 9.0 26.0 0.00 0.00 0.00 80 998.2
20260509170535 60 243 20.0 30.0 0.00 0.00 0.00 80 998.0
20260509170024 60 244 24.0 30.0 0.00 0.00 0.00 79 998.1
20260509165535 60 241 22.0 29.0 0.00 0.00 0.00 82 998.1
20260509165028 61 250 21.0 24.0 0.00 0.00 0.00 81 998.1
20260509164536 61 241 20.0 25.0 0.00 0.00 0.00 81 998.1
20260509164024 61 240 21.0 25.0 0.00 0.00 0.00 81 998.1
20260509163534 61 241 21.0 27.0 0.00 0.00 0.00 82 998.2
20260509163027 61 243 21.0 29.0 0.00 0.00 0.00 81 998.2
20260509162537 61 232 25.0 29.0 0.00 0.00 0.00 79 998.2
20260509162025 61 237 23.0 29.0 0.00 0.00 0.00 78 998.0
20260509161534 61 224 25.0 33.0 0.00 0.00 0.00 78 997.9
20260509161025 61 225 27.0 33.0 0.00 0.00 0.00 78 997.8
20260509160531 61 224 25.0 34.0 0.00 0.00 0.00 78 997.7
20260509160042 60 226 29.0 35.0 0.00 0.00 0.00 78 997.7
20260509155539 60 230 28.0 36.0 0.00 0.00 0.00 77 997.7
20260509155026 60 228 28.0 39.0 0.00 0.00 0.00 78 997.8